Location: Deurze
(52.9838°N, 6.6090°E)
Time: 18:09:08
(UTC+00:00)

Cosmos 2315 Rocket - Pass Details

Date: 11 March 2026
Orbit: 966 x 1000 km, 82.9° (Epoch: 20 April)

Event Time Altitude Azimuth Distance (km) Brightness Sun altitude
Rises 19:15:27 0° 350° (N) 3,709 7.4 -16.4°
Reaches altitude 10° 19:18:01 10° 354° (N) 2,762 6.7 -16.8°
Maximum altitude 19:24:19 62° 75° (ENE) 1,112 4.0 -17.7°
Enters shadow 19:29:03 18° 152° (SSE) 2,212 5.4 -18.4°
